Time,TemperatureF,DewpointF,PressureIn,WindDirection,WindDirectionDegrees,WindSpeedMPH,WindSpeedGustMPH,Humidity,HourlyPrecipIn,Conditions,Clouds,dailyrainin,SoftwareType,DateUTC
2013-03-02 00:01:00,13.8,11.2,30.24,East,90,2.7,-999.0,89,-99.99,,,0.00,Acu-Link.com,2013-03-02 06:01:00,
2013-03-02 00:16:00,13.5,10.9,30.25,North,0,0.0,-999.0,89,-99.99,,,0.00,Acu-Link.com,2013-03-02 06:16:00,
2013-03-02 00:31:00,12.9,10.3,30.25,WNW,292,0.0,-999.0,89,-99.99,,,0.00,Acu-Link.com,2013-03-02 06:31:00,
2013-03-02 00:46:00,12.2,9.3,30.24,SSW,202,0.0,-999.0,88,-99.99,,,0.00,Acu-Link.com,2013-03-02 06:46:00,
2013-03-02 01:02:00,12.0,10.1,30.25,West,270,2.7,-999.0,92,-99.99,,,0.00,Acu-Link.com,2013-03-02 07:02:00,
2013-03-02 01:17:00,12.2,9.8,30.26,West,270,2.7,-999.0,90,-99.99,,,0.00,Acu-Link.com,2013-03-02 07:17:00,
2013-03-02 01:32:00,12.2,9.8,30.25,West,270,2.7,-999.0,90,-99.99,,,0.00,Acu-Link.com,2013-03-02 07:32:00,
2013-03-02 01:48:00,12.7,10.3,30.25,WNW,292,3.7,-999.0,90,-99.99,,,0.00,Acu-Link.com,2013-03-02 07:48:00,
2013-03-02 02:03:00,12.7,10.3,30.25,NW,315,2.2,-999.0,90,-99.99,,,0.00,Acu-Link.com,2013-03-02 08:03:00,
2013-03-02 02:18:00,12.4,10.0,30.25,West,270,3.2,-999.0,90,-99.99,,,0.00,Acu-Link.com,2013-03-02 08:18:00,
2013-03-02 02:33:00,12.2,9.8,30.24,WNW,292,2.7,-999.0,90,-99.99,,,0.00,Acu-Link.com,2013-03-02 08:33:00,
2013-03-02 02:49:00,12.2,9.8,30.23,WNW,292,2.7,-999.0,90,-99.99,,,0.00,Acu-Link.com,2013-03-02 08:49:00,
2013-03-02 03:18:00,12.0,9.6,30.23,WNW,292,2.7,-999.0,90,-99.99,,,0.00,Acu-Link.com,2013-03-02 09:18:00,
2013-03-02 03:33:00,11.3,8.7,30.23,WNW,292,3.2,-999.0,89,-99.99,,,0.00,Acu-Link.com,2013-03-02 09:33:00,
2013-03-02 03:48:00,11.1,8.5,30.23,NW,315,3.2,-999.0,89,-99.99,,,0.00,Acu-Link.com,2013-03-02 09:48:00,
2013-03-02 04:04:00,11.1,8.5,30.23,West,270,3.2,-999.0,89,-99.99,,,0.00,Acu-Link.com,2013-03-02 10:04:00,
2013-03-02 04:19:00,11.5,8.9,30.22,NW,315,2.2,-999.0,89,-99.99,,,0.00,Acu-Link.com,2013-03-02 10:19:00,
2013-03-02 04:50:00,11.3,8.7,30.22,NW,315,2.2,-999.0,89,-99.99,,,0.00,Acu-Link.com,2013-03-02 10:50:00,
2013-03-02 05:05:00,10.9,8.3,30.21,West,270,0.0,-999.0,89,-99.99,,,0.00,Acu-Link.com,2013-03-02 11:05:00,
2013-03-02 05:21:00,10.6,8.0,30.21,East,90,0.0,-999.0,89,-99.99,,,0.00,Acu-Link.com,2013-03-02 11:21:00,
2013-03-02 05:36:00,10.0,7.4,30.21,NNE,22,0.0,-999.0,89,-99.99,,,0.00,Acu-Link.com,2013-03-02 11:36:00,
2013-03-02 05:51:00,9.3,6.5,30.22,NNE,22,0.0,-999.0,88,-99.99,,,0.00,Acu-Link.com,2013-03-02 11:51:00,
2013-03-02 06:07:00,9.3,6.7,30.21,West,270,0.0,-999.0,89,-99.99,,,0.00,Acu-Link.com,2013-03-02 12:07:00,
2013-03-02 06:22:00,9.7,7.4,30.22,WNW,292,1.1,-999.0,90,-99.99,,,0.00,Acu-Link.com,2013-03-02 12:22:00,
2013-03-02 06:37:00,10.2,7.9,30.21,NNW,337,0.0,-999.0,90,-99.99,,,0.00,Acu-Link.com,2013-03-02 12:37:00,
2013-03-02 06:52:00,10.2,7.6,30.21,NW,315,0.0,-999.0,89,-99.99,,,0.00,Acu-Link.com,2013-03-02 12:52:00,
2013-03-02 07:08:00,10.2,7.6,30.20,ENE,67,1.7,-999.0,89,-99.99,,,0.00,Acu-Link.com,2013-03-02 13:08:00,
2013-03-02 07:23:00,11.3,8.2,30.20,SW,225,0.0,-999.0,87,-99.99,,,0.00,Acu-Link.com,2013-03-02 13:23:00,
2013-03-02 07:38:00,11.5,8.4,30.19,NNE,22,0.0,-999.0,87,-99.99,,,0.00,Acu-Link.com,2013-03-02 13:38:00,
2013-03-02 07:54:00,12.4,9.3,30.21,NNW,337,0.0,-999.0,87,-99.99,,,0.00,Acu-Link.com,2013-03-02 13:54:00,
2013-03-02 08:09:00,13.5,10.1,30.20,ESE,112,2.2,-999.0,86,-99.99,,,0.00,Acu-Link.com,2013-03-02 14:09:00,
2013-03-02 08:24:00,13.8,10.1,30.19,ESE,112,3.7,-999.0,85,-99.99,,,0.00,Acu-Link.com,2013-03-02 14:24:00,
2013-03-02 08:39:00,15.3,11.6,30.18,ESE,112,3.7,-999.0,85,-99.99,,,0.00,Acu-Link.com,2013-03-02 14:39:00,
2013-03-02 08:54:00,16.2,11.7,30.18,ESE,112,2.7,-999.0,82,-99.99,,,0.00,Acu-Link.com,2013-03-02 14:54:00,
2013-03-02 09:09:00,17.2,12.4,30.16,SE,135,4.2,-999.0,81,-99.99,,,0.00,Acu-Link.com,2013-03-02 15:09:00,
2013-03-02 09:24:00,17.8,13.0,30.15,East,90,4.2,-999.0,81,-99.99,,,0.00,Acu-Link.com,2013-03-02 15:24:00,
2013-03-02 09:40:00,19.8,14.6,30.15,SSE,157,5.3,-999.0,80,-99.99,,,0.00,Acu-Link.com,2013-03-02 15:40:00,
2013-03-02 09:55:00,21.2,15.1,30.16,South,180,4.7,-999.0,77,-99.99,,,0.00,Acu-Link.com,2013-03-02 15:55:00,
2013-03-02 10:10:00,21.7,15.9,30.15,SSE,157,6.3,-999.0,78,-99.99,,,0.00,Acu-Link.com,2013-03-02 16:10:00,
2013-03-02 10:25:00,20.8,15.6,30.16,South,180,7.8,-999.0,80,-99.99,,,0.00,Acu-Link.com,2013-03-02 16:25:00,
2013-03-02 10:40:00,21.6,15.8,30.16,ESE,112,6.8,-999.0,78,-99.99,,,0.00,Acu-Link.com,2013-03-02 16:40:00,
2013-03-02 10:55:00,22.5,16.4,30.16,SW,225,6.3,-999.0,77,-99.99,,,0.00,Acu-Link.com,2013-03-02 16:55:00,
2013-03-02 11:10:00,23.5,17.1,30.14,South,180,6.3,-999.0,76,-99.99,,,0.00,Acu-Link.com,2013-03-02 17:10:00,
2013-03-02 11:26:00,23.5,17.4,30.14,South,180,4.7,-999.0,77,-99.99,,,0.00,Acu-Link.com,2013-03-02 17:26:00,
2013-03-02 11:41:00,25.2,18.1,30.13,SSE,157,7.8,-999.0,74,-99.99,,,0.00,Acu-Link.com,2013-03-02 17:41:00,
2013-03-02 11:56:00,26.1,18.3,30.14,South,180,5.3,-999.0,72,-99.99,,,0.00,Acu-Link.com,2013-03-02 17:56:00,
2013-03-02 12:11:00,27.0,18.5,30.13,SSW,202,6.3,-999.0,70,-99.99,,,0.00,Acu-Link.com,2013-03-02 18:11:00,
2013-03-02 12:26:00,26.4,18.3,30.12,ESE,112,5.8,-999.0,71,-99.99,,,0.00,Acu-Link.com,2013-03-02 18:26:00,
2013-03-02 12:41:00,28.2,18.7,30.12,South,180,8.3,-999.0,67,-99.99,,,0.00,Acu-Link.com,2013-03-02 18:41:00,
2013-03-02 12:56:00,28.2,19.0,30.12,SSE,157,6.3,-999.0,68,-99.99,,,0.00,Acu-Link.com,2013-03-02 18:56:00,
2013-03-02 13:12:00,28.2,18.0,30.11,SSE,157,6.3,-999.0,65,-99.99,,,0.00,Acu-Link.com,2013-03-02 19:12:00,
2013-03-02 13:27:00,28.2,18.7,30.10,SSW,202,5.3,-999.0,67,-99.99,,,0.00,Acu-Link.com,2013-03-02 19:27:00,
2013-03-02 13:43:00,27.5,18.0,30.09,SE,135,7.8,-999.0,67,-99.99,,,0.00,Acu-Link.com,2013-03-02 19:43:00,
2013-03-02 13:58:00,27.3,17.1,30.09,SSE,157,8.9,-999.0,65,-99.99,,,0.00,Acu-Link.com,2013-03-02 19:58:00,
2013-03-02 14:13:00,27.9,18.4,30.07,SSE,157,5.8,-999.0,67,-99.99,,,0.00,Acu-Link.com,2013-03-02 20:13:00,
2013-03-02 14:28:00,28.6,18.4,30.07,ESE,112,6.3,-999.0,65,-99.99,,,0.00,Acu-Link.com,2013-03-02 20:28:00,
2013-03-02 14:43:00,28.8,19.2,30.07,SSE,157,7.8,-999.0,67,-99.99,,,0.00,Acu-Link.com,2013-03-02 20:43:00,
2013-03-02 14:59:00,28.9,19.3,30.06,SSE,157,7.3,-999.0,67,-99.99,,,0.00,Acu-Link.com,2013-03-02 20:59:00,
2013-03-02 15:14:00,28.8,18.5,30.05,SE,135,5.8,-999.0,65,-99.99,,,0.00,Acu-Link.com,2013-03-02 21:14:00,
2013-03-02 15:29:00,28.8,18.9,30.05,ESE,112,7.8,-999.0,66,-99.99,,,0.00,Acu-Link.com,2013-03-02 21:29:00,
2013-03-02 15:44:00,28.9,19.0,30.05,ESE,112,7.8,-999.0,66,-99.99,,,0.00,Acu-Link.com,2013-03-02 21:44:00,
2013-03-02 15:59:00,28.8,19.2,30.04,ESE,112,6.8,-999.0,67,-99.99,,,0.00,Acu-Link.com,2013-03-02 21:59:00,
2013-03-02 16:14:00,28.8,19.2,30.04,ESE,112,9.4,-999.0,67,-99.99,,,0.00,Acu-Link.com,2013-03-02 22:14:00,
2013-03-02 16:29:00,28.8,19.2,30.03,SE,135,7.8,-999.0,67,-99.99,,,0.00,Acu-Link.com,2013-03-02 22:29:00,
2013-03-02 16:44:00,29.1,19.9,30.02,SSE,157,8.9,-999.0,68,-99.99,,,0.00,Acu-Link.com,2013-03-02 22:44:00,
2013-03-02 17:00:00,28.8,19.6,30.02,SSE,157,9.4,-999.0,68,-99.99,,,0.00,Acu-Link.com,2013-03-02 23:00:00,
2013-03-02 17:15:00,28.6,19.4,30.02,SE,135,8.3,-999.0,68,-99.99,,,0.00,Acu-Link.com,2013-03-02 23:15:00,
2013-03-02 17:30:00,28.2,19.7,30.03,SE,135,5.3,-999.0,70,-99.99,,,0.00,Acu-Link.com,2013-03-02 23:30:00,
2013-03-02 17:45:00,27.7,19.9,30.03,ESE,112,7.3,-999.0,72,-99.99,,,0.00,Acu-Link.com,2013-03-02 23:45:00,
2013-03-02 18:00:00,26.6,19.5,30.03,SE,135,5.8,-999.0,74,-99.99,,,0.00,Acu-Link.com,2013-03-03 00:00:00,
2013-03-02 18:15:00,26.1,19.3,30.03,ESE,112,4.7,-999.0,75,-99.99,,,0.00,Acu-Link.com,2013-03-03 00:15:00,
2013-03-02 18:30:00,25.2,18.7,30.04,ESE,112,4.2,-999.0,76,-99.99,,,0.00,Acu-Link.com,2013-03-03 00:30:00,
2013-03-02 18:46:00,24.8,18.6,30.03,ESE,112,6.8,-999.0,77,-99.99,,,0.00,Acu-Link.com,2013-03-03 00:46:00,
2013-03-02 19:01:00,24.1,18.3,30.02,SE,135,5.8,-999.0,78,-99.99,,,0.00,Acu-Link.com,2013-03-03 01:01:00,
2013-03-02 19:16:00,23.7,18.5,30.02,ESE,112,4.7,-999.0,80,-99.99,,,0.00,Acu-Link.com,2013-03-03 01:16:00,
2013-03-02 19:31:00,23.4,18.7,30.02,ESE,112,4.2,-999.0,82,-99.99,,,0.00,Acu-Link.com,2013-03-03 01:31:00,
2013-03-02 19:47:00,23.4,18.7,30.02,SSE,157,6.3,-999.0,82,-99.99,,,0.00,Acu-Link.com,2013-03-03 01:47:00,
2013-03-02 20:02:00,23.2,18.5,30.02,ESE,112,3.7,-999.0,82,-99.99,,,0.00,Acu-Link.com,2013-03-03 02:02:00,
2013-03-02 20:17:00,23.0,18.3,30.02,ESE,112,4.2,-999.0,82,-99.99,,,0.00,Acu-Link.com,2013-03-03 02:17:00,
2013-03-02 20:32:00,23.4,18.7,30.01,SSE,157,3.7,-999.0,82,-99.99,,,0.00,Acu-Link.com,2013-03-03 02:32:00,
2013-03-02 20:47:00,23.4,18.7,30.01,ESE,112,3.7,-999.0,82,-99.99,,,0.00,Acu-Link.com,2013-03-03 02:47:00,
2013-03-02 21:02:00,23.7,19.0,30.00,SE,135,5.3,-999.0,82,-99.99,,,0.00,Acu-Link.com,2013-03-03 03:02:00,
2013-03-02 21:17:00,23.7,19.0,29.99,ESE,112,5.3,-999.0,82,-99.99,,,0.00,Acu-Link.com,2013-03-03 03:17:00,
2013-03-02 21:32:00,23.0,18.6,29.99,ESE,112,6.8,-999.0,83,-99.99,,,0.00,Acu-Link.com,2013-03-03 03:32:00,
2013-03-02 21:47:00,22.8,18.7,29.99,East,90,6.8,-999.0,84,-99.99,,,0.00,Acu-Link.com,2013-03-03 03:47:00,
2013-03-02 22:02:00,22.8,18.7,29.98,SE,135,6.8,-999.0,84,-99.99,,,0.00,Acu-Link.com,2013-03-03 04:02:00,
2013-03-02 22:18:00,22.3,18.5,29.97,SE,135,4.2,-999.0,85,-99.99,,,0.00,Acu-Link.com,2013-03-03 04:18:00,
2013-03-02 22:33:00,22.1,18.3,29.98,SE,135,3.7,-999.0,85,-99.99,,,0.00,Acu-Link.com,2013-03-03 04:33:00,
2013-03-02 22:48:00,22.1,18.3,29.97,ESE,112,4.2,-999.0,85,-99.99,,,0.00,Acu-Link.com,2013-03-03 04:48:00,
2013-03-02 23:04:00,21.9,18.1,29.96,ESE,112,5.3,-999.0,85,-99.99,,,0.00,Acu-Link.com,2013-03-03 05:04:00,
2013-03-02 23:19:00,21.7,17.9,29.95,SE,135,3.7,-999.0,85,-99.99,,,0.00,Acu-Link.com,2013-03-03 05:19:00,
2013-03-02 23:34:00,21.2,17.7,29.94,SE,135,4.7,-999.0,86,-99.99,,,0.00,Acu-Link.com,2013-03-03 05:34:00,
2013-03-02 23:49:00,21.0,17.5,29.93,SE,135,5.3,-999.0,86,-99.99,,,0.00,Acu-Link.com,2013-03-03 05:49:00,